Regional Weather Roundup
Issued by NWS Mobile, AL

Home | Current Version | Previous Version | Text Only | Print | Product List | Glossary On
Versions: 1 2 3 4 5 6 7 8 9 10 11 12 13 14 15 16 17 18 19 20 21 22 23 24 25 26 27 28 29 30 31 32 33 34 35 36 37 38 39 40 41 42 43 44 45 46 47 48 49 50
000
ASUS44 KMOB 171112
RWRMOB
REGIONAL WEATHER ROUNDUP
NATIONAL WEATHER SERVICE MOBILE AL
500 AM CST TUE JAN 17 2017

NOTE: "FAIR" INDICATES FEW OR NO CLOUDS BELOW 12,000 FEET WITH NO
      SIGNIFICANT WEATHER AND/OR OBSTRUCTIONS TO VISIBILITY.

  * THESE STATIONS ARE PART OF THE UNIVERSITY OF SOUTH ALABAMA
    MESONET AND ARE NOT UNDER NWS OR FAA QUALITY CONTROL.

ALZ061>064-171200-
COASTAL ALABAMA

CITY           SKY/WX    TMP DP  RH WIND       PRES   REMARKS
MOBILE REG APT FOG       66  65  96 S8        30.15F VSB 1
BROOKLEY FIELD CLOUDY    67  66  97 S5        30.16S
USA CAMPUS*      N/A     66  66 100 CALM      30.15S
DOG RIVER*       N/A     64  64 100 SE3       30.95F


CITY           SKY/WX    TMP DP  RH WIND       PRES   REMARKS
GULF SHORES    MOCLDY    67  67 100 SE5       30.15S

$$

ALZ051>060-171200-
INTERIOR SOUTHWEST AND SOUTH CENTRAL ALABAMA

CITY           SKY/WX    TMP DP  RH WIND       PRES   REMARKS
GREENVILLE     CLOUDY    58  55  90 CALM      30.16F
EVERGREEN      FOG       63  62  97 S3        30.17S VSB 1/2
ATMORE*          N/A    N/A N/A N/A SE3       30.18S
ANDALUSIA/OPP  NOT AVBL
ANDALUSIA*       N/A     59  59 100 S6        30.17S
FLORALA APT    PTCLDY    58  56  93 SE3       30.19S
FLORALA*       NOT AVBL

$$

FLZ001>006-171200-
WESTERN FLORIDA PANHANDLE

CITY           SKY/WX    TMP DP  RH WIND       PRES   REMARKS
PENSACOLA      MOCLDY    66  64  93 CALM      30.16R FOG
NAS PENSACOLA  PTCLDY    65  64  97 S5        30.15R
MILTON           N/A    N/A N/A N/A MISG      30.17R
WHTNG S FIELD  PTCLDY    65  63  93 SE6       30.17R FOG


CITY           SKY/WX    TMP DP  RH WIND       PRES   REMARKS
JAY*             N/A     64  64 100 SE6       30.17S
DUKE FIELD     PTCLDY    61  60  95 CALM      30.17R
CRESTVIEW      PTCLDY    53  52  96 CALM      30.19R
VALPARAISO     PTCLDY    60  58  95 CALM      30.17R
DESTIN         CLEAR     64  62  93 CALM      30.17S

$$

MSZ076-079-171200-
INTERIOR SOUTHEAST MISSISSIPPI

CITY           SKY/WX    TMP DP  RH WIND       PRES   REMARKS
LEAKESVILLE*   NOT AVBL
AGRICOLA*      NOT AVBL

$$

MARINE OBSERVATIONS

STATION/POSITION TIME  TEMP    WIND        PRES    WAVE
                       AIR SEA DIR/SP/G            HT/PER
                 (UTC) (F)     (DEG/KT/KT) (MB)    (FT/S)
PASCAGOULA       1042   66     130/  7/ 10 1020.2F
PETIT BOIS ISLND 1042   63     130/  6/  8 1021.2R
GRAND BAY        0930   65     100/  5     1022.0R
KATRINA CUT      1030          160/  9     1020.6R
CEDAR POINT      1030   67     160/  8     1020.6R
E DAUPHIN ISLAND 1100   65     140/  5/  5 1020.6R
MIDDLE BAY LIGHT 1030   65     110/  7     1020.3S
USCG MOBILE BAY  1042   64 61   CALM  /  1 1021.6R
STATE DOCKS      1048                      1020.7F
MEAHER PARK      1030   67     130/  5     1020.6S
WEEKS BAY        0945   62                   N/A
FORT MORGAN      1042   67     170/ 12/ 12   N/A
12 S ORANGE BCH  1050   68 66  160/  4/  6 1021.0R   4/ 7
PENSACOLA BAY    1048           50/  2/  2 1021.4R
67 S FORT MORGAN 1030   71                 1020.3F

$$

SELECTED LOCATIONS ACROSS THE REGION

CITY           SKY/WX    TMP DP  RH WIND       PRES   REMARKS
NEW ORLEANS    MOCLDY    66  65  96 SE6       30.10S
GULFPORT       CLOUDY    67  67 100 SE8       30.11F FOG
PASCAGOULA AP  CLOUDY    66  64  93 SE5       30.13F FOG
PASCAGOULA*    NOT AVBL
HATTIESBURG    FOG       60  59  96 SE3       30.13R VSB 1/2
LAUREL         CLOUDY    63  59  88 S3        30.14R VSB 1/2
MERIDIAN       MOCLDY    66  65  96 S5        30.11F
JACKSON        CLOUDY    66  63  90 S8        30.08R
MONTGOMERY     CLOUDY    56  51  84 E3        30.18S
TROY           PTCLDY    55  53  93 CALM      30.19S
ASHFORD*         N/A     59  59 100 S6        30.17S
DOTHAN         PTCLDY    57  57 100 S5        30.23S
PANAMA CITY    MOCLDY    58  56  93 E5        30.19R

$$




USA.gov is the U.S. government's official web portal to all federal, state and local government web resources and services.